Regional Weather Roundup
Issued by NWS

Home | Current Version | Previous Version | Text Only | Print | Product List | Glossary On
Versions: 1 2 3 4 5 6 7 8 9 10 11 12 13 14 15 16 17 18 19 20 21 22 23 24 25 26 27 28 29 30 31 32 33 34 35 36 37 38 39 40 41 42 43 44 45 46 47 48 49 50
000
ASUS43 KMPX 020201
RWRMN
WEATHER ROUNDUP FOR MINNESOTA
NATIONAL WEATHER SERVICE TWIN CITIES/CHANHASSEN MN
900 PM CDT WED OCT 01 2014


NOTE: "FAIR" INDICATES FEW OR NO CLOUDS BELOW 12,000 FEET WITH NO
SIGNIFICANT WEATHER AND/OR OBSTRUCTIONS TO VISIBILITY. N/A MEANS
CURRENT SKY AND/OR WEATHER CONDITIONS ARE NOT AVAILABLE.

MNZ060>063-068>070-020300-
   Twin Cities Metro

CITY           SKY/WX    TMP DP  RH WIND       PRES   REMARKS
TWIN CITIES    CLOUDY    58  56  93 E3        29.81S FOG
ST PAUL        CLOUDY    58  57  97 CALM      29.82S FOG
CRYSTAL        CLOUDY    59  56  89 S5        29.80S FOG
LAKEVILLE      CLOUDY    57  55  94 CALM      29.81S FOG
EDEN PRAIRIE   CLOUDY    58  57  97 S3        29.80S FOG
SOUTH ST PAUL  CLOUDY    58  56  95 CALM      29.81S FOG
LAKE ELMO      CLOUDY    55  55 100 SE6       29.82S FOG
$$
MNZ001>005-007-008-013>017-022>024-027-028-020300-
   Northwest Minnesota

CITY           SKY/WX    TMP DP  RH WIND       PRES   REMARKS
BEMIDJI        CLOUDY    56  54  92 S7        29.75R
HALLOCK        MOCLDY    59  52  77 W12       29.67R
ROSEAU         CLOUDY    61  54  77 SW10      29.67R
WARROAD        CLOUDY    59  55  88 SW8       29.66R
THIEF RVR FALL CLOUDY    59  54  82 SW8       29.71R
CROOKSTON      MOCLDY    57  52  82 SW6       29.73R
FOSSTON        CLOUDY    57  52  82 SW8       29.74R
DETROIT LAKES  CLOUDY    59  50  72 SW5       29.78R
PARK RAPIDS    CLOUDY    55  54  96 S5        29.76S
MAHNOMEN       CLOUDY    60  50  71 SW8       29.74S
$$
MNZ006-009>011-018-025>026-020300-
   North Central Minnesota

CITY           SKY/WX    TMP DP  RH WIND       PRES   REMARKS
BAUDETTE       CLOUDY    57  53  86 S10       29.68R
FLAG ISLAND    CLOUDY    57  55  94 S8        29.63R
INTL FALLS     CLOUDY    53  50  89 S8        29.72R
WASKISH        LGT RAIN  55  54  94 S6        29.72R
BIG FORK       CLOUDY    54  52  94 S9        29.77R FOG
LONGVILLE      CLOUDY    54  52  94 CALM      29.78R FOG
GRAND RAPIDS   CLOUDY    52  48  87 S9        29.79R
CRANE LAKE     CLOUDY    48  48 100 S7        29.77R FOG
ORR            CLOUDY    50  46  87 S10       29.74S FOG
COOK           CLOUDY    50  48  93 S7        29.78R FOG
WALKER         CLOUDY    55  54  97 S7        29.76S FOG
$$
MNZ012-019>021-037-020300-
   Northeast Minnesota

CITY           SKY/WX    TMP DP  RH WIND       PRES   REMARKS
DULUTH         FOG       51  49  92 S8        29.81R VSB 3/4
ELY            CLOUDY    48  46  93 S6        29.79R
HIBBING        CLOUDY    51  49  92 S5        29.80R FOG
EVELETH        CLOUDY    50  50 100 S7        29.81R FOG
DULUTH HARBOR  CLOUDY    54  52  94 SW3       29.83S
TWO HARBORS    DRIZZLE   50  45  81 S3        29.81R
SILVER BAY     CLOUDY    48  48 100 CALM      29.81S FOG
GRAND MARAIS     N/A     50  48  93 E5        29.83S
G MARAIS ARPRT DRZL/FOG  46  43  87 S6        29.82R VSB<1/4
$$
MNZ029>031-032-039>041-046>048-054>057-064-020300-
   West Central Minnesota

CITY           SKY/WX    TMP DP  RH WIND       PRES   REMARKS
FERGUS FALLS   CLOUDY    61  46  59 W6        29.79R
WHEATON        CLEAR     55  48  76 CALM      29.82R
MORRIS         PTCLDY    55  50  82 NW7       29.79R
ALEXANDRIA     PTCLDY    59  52  77 CALM      29.81R
ELBOW LAKE     MOCLDY    56  50  79 W3        29.80R
WADENA         PTCLDY    54  52  94 CALM      29.78R
GLENWOOD       PTCLDY    57  55  94 W6        29.80S
APPLETON       PTCLDY    61  50  67 NW6       29.79R
BENSON         PTCLDY    59  54  82 N3        29.80R
ORTONVILLE     PTCLDY    61  50  67 NW5       29.81R
MADISON        PTCLDY    63  52  67 NW9       29.80R
WILLMAR        FAIR      57  54  88 SE3       29.81R
$$
MNZ033>034-036-042>043-049>051-058-059-020300-
   Central Minnesota

CITY           SKY/WX    TMP DP  RH WIND       PRES   REMARKS
ST CLOUD       CLOUDY    58  54  86 S6        29.81R
SAUK CENTRE    CLOUDY    54  53  98 CALM      29.80R
PAYNESVILLE    PTCLDY    54  53  97 E9        29.80R
AITKIN         CLOUDY    55  50  82 S7        29.79R HAZE
PINE RIVER     CLOUDY    54  54 100 S5        29.83R FOG
BRAINERD       CLOUDY    53  53 100 S6        29.80R FOG
STAPLES        CLOUDY    54  54 100 S5        29.80R
LONG PRAIRIE   FAIR      54  52  94 SE3       29.80S
LITTLE FALLS   CLOUDY    54  52  94 SE3       29.80R
LITCHFIELD     CLOUDY    57  57 100 SE6       29.81S FOG
BUFFALO        CLOUDY    57  55  91 CALM      29.82R
MAPLE LAKE     CLOUDY    58  57  95 CALM      29.82S
$$
MNZ037-044-045-052-053-020300-
   East Central Minnesota

CITY           SKY/WX    TMP DP  RH WIND       PRES   REMARKS
PRINCETON      CLOUDY    57  55  94 SE3       29.82R
MORA           CLOUDY    54  52  94 S6        29.84R FOG
CAMBRIDGE      CLOUDY    57  48  72 CALM      29.80S HAZE
RUSH CITY      CLOUDY    54  52  95 CALM      29.83S
MOOSE LAKE     CLOUDY    52  50  93 SW6       29.80S FOG
HINCKLEY       CLOUDY    54  54 100 S3        29.82S FOG
CLOQUET        CLOUDY    52  48  87 S6        29.81S FOG
MCGREGOR       CLOUDY    52  50  93 S6        29.81S
$$
MNZ071>073-080-081-089-090-097-098-020300-
   Southwest Minnesota

CITY           SKY/WX    TMP DP  RH WIND       PRES   REMARKS
MONTEVIDEO     PTCLDY    61  55  82 CALM      29.80R
GRANITE FALLS  PTCLDY    56  55  99 CALM      29.81R
CANBY          PTCLDY    56  51  82 CALM      29.82R
MARSHALL       PTCLDY    59  54  82 CALM      29.79R
REDWOOD FALLS  MOCLDY    57  55  93 CALM      29.78R
OLIVIA         PTCLDY    57  54  88 SE3       29.79R
PIPESTONE      PTCLDY    63  52  67 CALM      29.81R
WINDOM         CLOUDY    61  57  88 CALM      29.80S
WORTHINGTON    PTCLDY    61  57  88 CALM      29.81R
JACKSON        MOCLDY    61  57  88 CALM      29.81S
TRACY          MOCLDY    58  56  92 CALM      29.81R
SLAYTON        PTCLDY    59  54  82 CALM      29.81R
$$
MNZ065>067-074>077-082>085-091>093-020300-
   South Central Minnesota

CITY           SKY/WX    TMP DP  RH WIND       PRES   REMARKS
MANKATO        CLOUDY    61  55  82 NW9       29.83R
NEW ULM        RAIN      59  59 100 SE9       29.80R
ST JAMES       TSTM      63  61  94 NE3       29.81R
FAIRMONT       MOCLDY    61  55  82 S3        29.80R
GLENCOE        CLOUDY    60  58  96 SE3       29.80R FOG
FARIBAULT      PTCLDY    57  55  94 CALM      29.81S FOG
OWATONNA       PTCLDY    57  55  94 E6        29.81S FOG
WASECA         CLOUDY    55  52  88 E5        29.82R FOG
ALBERT LEA     PTCLDY    57  57 100 SE3       29.82R FOG
$$
MNZ078>079-086>088-094>096-020300-
   Southeast Minnesota

CITY           SKY/WX    TMP DP  RH WIND       PRES   REMARKS
ROCHESTER      CLOUDY    58  55  90 S3        29.84R
RED WING       CLOUDY    57  55  94 SE3       29.82S FOG
STANTON        CLOUDY    60  57  90 SE3       29.80S FOG
DODGE CENTER   PTCLDY    55  55 100 SE8       29.82S FOG
WINONA         CLOUDY    55  55 100 CALM      29.83S
AUSTIN         PTCLDY    57  55  94 E3        29.82S FOG
PRESTON        CLOUDY    55  54  94 CALM      29.84S FOG
$$
ABBREVIATIONS USED IN REMARKS
   TC - TEMPERATURES IN CELSIUS
  WCI - WIND CHILL INDEX
   HX - HEAT INDEX
  VSB - VISIBILITY
$$



USA.gov is the U.S. government's official web portal to all federal, state and local government web resources and services.